Airfield :
LOGIN :

Register | Disclaimer

   EN    FR    IT 

 










Legend :    VFR   Marginal VFR   IFR   Intensive IFR   Very Intensive IFR
Visi :
Ceiling :
>= 8 km
>= 3000ft
5 to 8 km
1000 to 3000 ft
1500m to 5 km
500 to 1000 ft
800 to 1500m
200 to 500 ft
< 800m
< 200 ft
Symbols :   Thunderstorms  Fog  Heavy snow  Heavy precipitations  Wind > 20 kt
SIGMETs :     Misc.  Thunderstorms  Icing  Turbulence  Mountain Waves  Volcanic Ashes







- Airport Elevation : 194 ft
- IATA code : IEG


EPZG - Zielona Gora Babimost

CURRENT METAR :
  • 191100Z 24013KT CAVOK 10/02 Q1015

EXPIRED METARs :
  • 191030Z 24014KT 210V270 CAVOK 10/02 Q1015
  • 191000Z 23013KT CAVOK 10/01 Q1015
  • 190930Z 23015KT CAVOK 09/01 Q1014
  • 190900Z 23016KT CAVOK 08/01 Q1014
  • 190830Z 23015KT CAVOK 08/01 Q1014

TAF TAF EPZG
Valid from the 19 at 09:00 until the 19 at 18:00 UTC


190830Z 1909/1918 25012KT CAVOK
TEMPO 1912/1918 27015G25KT SHRA BKN013CB
No reported NOTAMs for that airfield.



MET'MAP, your aeronautical weather chart ! - Copyright ORBIFLY December 2007 - Disclaimer

ORBIFLY MET'MAP TEAM :

Programming & Development : Alexandra Zaïnal
Concept & Development : Baudouin d'Aumeries
Co-Development & Prog : Marc-Olivier Méhu
Technical & hardware support : Manuel Goepfert

Contact : metmap@orbifly.com




SOURCES & CREDITS :

   NOAA